www.pogodaiklimat.ru

Погода и климат >> Архив погоды >> Польша >> Wroclaw


АРХИВ ПОГОДЫ в Wroclaw

Время (UTC), дата Ветер
(напр.,м/с)
 
Видим.   Явления Облачность Т
(С)
Тd
(С)
f
(%)
Тe
(С)
Тes
(С)
Комфортность P
(гПа)
Po
(гПа)
Тmin
(С)
Tmax
(С)
R
(мм)
R24
(мм)
S
(см)
16 10.12 З 8-14
{14}
40 км в посл. час ливневой дождь 9/9 600 м
[Cb cap]
+3.4 +0.3 80 -3 -3 тепло 1010.7 995.7
17 10.12 З 5 50 км 6/6 1500 м
[Sc]
+2.8 -0.3 80 -2 -2 тепло 1011.0 995.9
18 10.12 З 7
{14}
40 км в посл. час ливневой дождь 9/9 450 м
[Cb cap]
+3.0 +0.4 83 -3 -3 по сезону 1010.9 995.9 +2.5 +5.5 0.3
19 10.12 З 6 40 км 5/5 1500 м
[Sc]
+1.7 -0.2 87 -4 -4 тепло 1010.8 995.7
20 10.12 З 5 35 км 9/9 1000 м
[Sc]
+2.2 -0.1 85 -3 -3 по сезону 1010.7 995.6
21 10.12 З 6
{11}
35 км в посл. час ливневой дождь 9/9 480 м
[Sc]
+2.6 0.0 83 -3 -3 по сезону 1010.6 995.5
22 10.12 З 6 40 км 9/9 480 м
[Sc]
+2.8 +0.4 84 -3 -3 тепло 1010.3 995.3
23 10.12 З 5 40 км в посл. час ливневой снег 9/9 300 м
[Sc]
+2.9 +0.5 84 -2 -2 тепло 1010.0 995.0
00 11.12 З 6
{11}
6000 м слабый ливневой дождь со снегом 10/9 150 м
[Cb cap]
+2.3 +0.5 88 -4 -4 по сезону 1009.8 994.7 1
01 11.12 З 7 6000 м слабый ливневой дождь со снегом 10/9 150 м
[Cb cap]
+2.1 +0.6 90 -4 -4 тепло 1009.7 994.6
02 11.12 З 4 40 км в посл. час ливневой снег 10/9 270 м
[St]
+2.3 +1.1 92 -3 -3 по сезону 1009.8 994.7
03 11.12 З 4 40 км {ливн. осадки} 9/9 270 м
[Sc]
+2.5 +1.2 91 -2 -2 по сезону 1009.8 994.7
04 11.12 З 6 20 км слабый дождь со снегом 10/9 270 м
[Frnb]
+2.8 +1.3 90 -3 -3 тепло 1009.5 994.5
05 11.12 З 6 15 км слабый дождь {снег} 10/9 270 м
[Frnb]
+2.9 +1.4 90 -3 -3 по сезону 1009.2 994.2
06 11.12 З 6 15 км слабый дождь {ливн. осадки} 10/9 400 м
[Sc]
+3.0 +1.2 88 -3 -3 по сезону 1009.0 994.0 +1.6 +3.2 3
07 11.12 З 5 15 км слабый дождь 10/10 300 м
[Sc]
+3.0 +1.5 90 -2 -2 тепло 1009.1 994.1
08 11.12 З 7 12 км слабый дождь 10/9 240 м
[Frnb]
+2.6 +1.3 91 -4 -4 по сезону 1009.0 994.0
09 11.12 З 6 12 км слабый дождь 10/9 210 м
[Frnb]
+2.7 +1.5 92 -3 -3 по сезону 1009.3 994.3
10 11.12 СЗ 5 18 км слабый дождь 10/9 210 м
[Frnb]
+2.8 +1.5 91 -3 -3 тепло 1009.6 994.6
11 11.12 СЗ 4 30 км слабый дождь 9/9 240 м
[Frnb]
+3.1 +1.5 89 -2 -2 по сезону 1009.9 994.9
12 11.12 СЗ 3-8
{9}
30 км слабый ливневой дождь 9/9 210 м
[Cb calv]
+3.1 +1.1 87 -1 -1 по сезону 1010.7 995.7 3
13 11.12 СЗ 3 40 км в посл. час ливневой дождь 9/9 330 м
[Sc]
+3.2 +1.1 86 -1 -1 тепло 1011.3 996.3
14 11.12 СЗ 3 40 км в посл. час ливневой дождь 9/9 300 м
[Sc]
+3.2 +1.2 87 -1 -1 по сезону 1012.0 997.0
15 11.12 СЗ 3
{8}
15 км слабый ливневой дождь 9/9 210 м
[Cb cap]
+2.7 +1.2 90 -1 -1 по сезону 1012.8 997.7
16 11.12 СЗ 2 20 км слабый ливневой дождь 9/9 180 м
[Cb cap]
+1.7 +0.5 92 -2 -2 тепло 1013.5 998.3
17 11.12 СЗ 2 25 км слабый дождь {ливн. осадки} 9/9 180 м
[Sc]
+2.6 +1.3 91 -1 -1 тепло 1014.0 998.9
18 11.12 СЗ 2-7
{8}
15 км слабый дождь {ливн. осадки} 9/9 180 м
[Frnb]
+2.5 +1.0 90 -1 -1 по сезону 1014.5 999.4 +1.6 +3.2 4
19 11.12 СЗ 3 15 км слабый дождь 10/9 180 м
[Sc]
+2.2 +0.7 90 -2 -2 тепло 1015.2 1000.0
20 11.12 СЗ 4 12 км слабый дождь 10/9 150 м
[Frnb]
+1.8 +0.6 92 -3 -3 по сезону 1015.4 1000.2
21 11.12 СЗ 3 25 км в посл. час дождь 10/9 180 м
[St]
+2.1 +0.8 91 -2 -2 по сезону 1015.8 1000.6
22 11.12 СЗ 3 25 км в посл. час дождь 10/9 180 м
[St]
+2.1 +0.8 91 -2 -2 тепло 1016.0 1000.8
23 11.12 СЗ 3 15 км 10/10 150 м
[St]
+2.1 +0.9 92 -2 -2 тепло 1016.4 1001.2
00 12.12 СЗ 2 10 км слабый дождь 10/9 120 м
[Frnb]
+1.9 +0.7 92 -2 -2 по сезону 1016.6 1001.4 0.1
01 12.12 СЗ 2 12 км слабый дождь 10/9 120 м
[Frnb]
+1.9 +0.9 93 -2 -2 тепло 1017.2 1002.0
02 12.12 СЗ 1 25 км в посл. час дождь 10/10 120 м
[St]
+2.0 +1.0 93 0 0 тепло 1017.5 1002.3
03 12.12 СЗ 2 20 км слабый дождь 10/9 150 м
[St]
+2.0 +1.0 93 -1 -1 по сезону 1017.7 1002.5
04 12.12 С 2 6000 м слабый снег {дождь} 10/9 90 м
[Frnb]
+1.3 +0.4 94 -2 -2 тепло 1018.3 1003.1
05 12.12 С 2 15 км в посл. час дождь со снегом 10/9 90 м
[St]
+1.5 +0.6 94 -2 -2 тепло 1018.8 1003.6
06 12.12 С 3 5000 м дымка {снег, дождь} 10/9 90 м
[St]
+1.8 +0.9 94 -3 -3 по сезону 1019.5 1004.3 +1.2 +2.5 1
07 12.12 С 2 7000 м дымка 9/4 180 м
[Sc Ac trans]
+1.7 +0.7 93 -2 -2 тепло 1020.3 1005.0
08 12.12 С 2 5000 м дымка 9/4 600 м
[Sc Ac trans]
+1.7 +0.4 91 -2 -2 по сезону 1021.0 1005.7
09 12.12 С 3 5000 м дымка 9/5 270 м
[Sc Ac trans]
+2.0 +0.5 90 -2 -2 по сезону 1021.6 1006.3
10 12.12 СВ 3 6000 м в посл. час дождь 9/9 270 м
[St]
+2.1 +0.3 88 -2 -2 тепло 1022.0 1006.7
11 12.12 С 2 9000 м дымка 9/4 200 м
[Sc Ac trans]
+2.4 +0.1 85 -1 -0 по сезону 1022.1 1006.9
12 12.12 С 3 9000 м дымка {дождь} 9/6 330 м
[Cb cap Ac trans]
+2.6 -0.2 82 -1 -1 по сезону 1022.3 1007.1 0.0
13 12.12 С 3 14 км 9/4 400 м
[Cu med, cong Ac trans]
+2.4 -0.5 81 -2 -1 тепло 1022.8 1007.5
14 12.12 С 2 14 км 6/1 420 м
[Cu med, cong Ac trans]
+2.1 -0.8 81 -1 -1 по сезону 1023.0 1007.7
15 12.12 С 2 10 км 3/0
[Ac trans]
+1.2 -1.5 82 -2 -2 по сезону 1023.3 1008.0
16 12.12 С 1 8000 м дымка 1/0
[Ac trans]
+0.4 -1.7 86 -2 -2 тепло 1023.8 1008.4
17 12.12 С 2 8000 м дымка 4/0
[Ac trans]
-0.2 -1.8 89 -4 -4 по сезону 1024.0 1008.6
18 12.12 С 2 7000 м дымка 3/0
[Ac trans]
-0.5 -2.1 89 -4 -4 по сезону 1024.4 1009.0 -0.5 +2.7 0.0
19 12.12 С 1 6000 м дымка 4/0
[Ac trans]
-1.4 -2.7 91 -4 -4 тепло 1024.7 1009.2
20 12.12 З 1 5000 м дымка 3/0
[Ac trans]
-3.2 -4.3 92 -6 -6 по сезону 1025.1 1009.5
21 12.12 Ю 1 4000 м дымка 9/9 330 м
[Sc]
-2.8 -3.8 93 -5 -5 по сезону 1025.4 1009.8
22 12.12 З 1 3500 м дымка 9/9 270 м
[St]
-2.3 -3.1 94 -5 -5 тепло 1025.4 1009.8
23 12.12 З 1 3500 м дымка 9/9 210 м
[St]
-1.7 -2.5 94 -4 -4 по сезону 1025.3 1009.8
00 13.12 З 1 4000 м дымка 10/9 200 м
[St]
-1.2 -2.0 94 -3 -3 по сезону 1025.0 1009.5
01 13.12 З 2 4500 м дымка 10/10 240 м
[St]
-0.7 -1.5 94 -5 -5 тепло 1024.8 1009.3
02 13.12 З 1 3000 м слабый снег 10/10 90 м
[Frnb]
-0.5 -1.3 94 -3 -3 по сезону 1024.6 1009.2
03 13.12 СЗ 1 2800 м слабый снег 10/10 120 м
[Frnb]
-0.4 -1.2 94 -3 -3 по сезону 1024.3 1008.9
04 13.12 СЗ 1 2500 м слабый снег 10/9 120 м
[Sc]
-0.4 -1.2 94 -3 -3 тепло 1024.2 1008.8
05 13.12 СЗ 1 2000 м слабый снег 10/9 90 м
[Sc]
-0.4 -1.2 94 -3 -3 по сезону 1024.0 1008.6
06 13.12 СЗ 1 2000 м слабый снег 10/9 90 м
[Frnb]
-0.3 -1.1 94 -2 -2 по сезону 1023.8 1008.4 -3.7 -0.3 0.0 <0.5
07 13.12 СЗ 1 1300 м слабый снег 10/9 90 м
[Frnb]
-0.2 -1.0 94 -2 -2 тепло 1024.0 1008.6
08 13.12 С 1 1400 м слабый снег 10/9 120 м
[Frnb]
-0.1 -0.8 95 -2 -2 по сезону 1024.1 1008.7
09 13.12 С 1 1300 м слабый снег 10/9 120 м
[Frnb]
+0.2 -0.5 95 -2 -2 по сезону 1024.1 1008.7
10 13.12 С 1 1500 м снежные зёрна 10/10 90 м
[St]
+0.4 -0.3 95 -2 -2 тепло 1023.7 1008.3
11 13.12 СВ 1 2000 м снежные зёрна 10/10 90 м
[St]
+0.6 -0.1 95 -2 -2 по сезону 1023.4 1008.0
12 13.12 СВ 1 2600 м снежные зёрна 10/10 90 м
[St]
+0.8 +0.1 95 -1 -1 по сезону 1023.1 1007.8 0.4
13 13.12 СВ 1 3500 м слабый снег 10/9 120 м
[Frnb]
+1.0 +0.1 94 -1 -1 тепло 1022.9 1007.6
14 13.12 СВ 2 4000 м слабый снег 10/9 120 м
[Frnb]
+1.1 +0.2 94 -3 -3 по сезону 1022.9 1007.6
15 13.12 СВ 2 4000 м в посл. час снег 10/10 120 м
[St]
+1.1 +0.1 93 -2 -2 по сезону 1023.0 1007.7
16 13.12 СВ 2 3500 м дымка 10/10 120 м
[St]
+1.0 +0.1 94 -3 -3 тепло 1023.0 1007.7
17 13.12 СВ 2 2000 м слабая морось 10/10 60 м
[St]
+0.9 +0.2 95 -3 -3 по сезону 1023.1 1007.8
18 13.12 СВ 3 2000 м снежные зёрна 10/10 60 м
[St]
+0.7 0.0 95 -4 -4 по сезону 1023.2 1007.8 -0.3 +1.3 0.4
19 13.12 СВ 2 5000 м в посл. час снег 10/10 60 м
[St]
+0.8 +0.1 95 -3 -3 тепло 1023.4 1008.0
20 13.12 СВ 2 1900 м слабая морось 10/10 60 м
[St]
+0.9 +0.2 95 -3 -3 по сезону 1023.5 1008.2
21 13.12 В 2 2200 м слабая морось {снег} 10/10 60 м
[St]
+1.0 +0.3 95 -3 -3 по сезону 1023.6 1008.3
22 13.12 СВ 2 1300 м снежные зёрна {морось} 10/10 60 м
[St]
+0.6 -0.1 95 -3 -3 тепло 1023.9 1008.5
23 13.12 В 2 2000 м слабый снег 10/10 90 м
[St]
+0.9 +0.2 95 -3 -3 по сезону 1023.9 1008.5
00 14.12 В 2 2500 м в посл. час снег {морось} 10/10 60 м
[St]
+0.9 +0.2 95 -3 -3 по сезону 1024.0 1008.6 0.2
01 14.12 СВ 1 2500 м дымка 10/9 90 м
[Sc]
+1.0 +0.3 95 -1 -1 тепло 1024.4 1009.0
02 14.12 В 2 4000 м дымка 9/9 150 м
[Sc]
+1.0 0.0 93 -3 -3 по сезону 1024.4 1009.0
03 14.12 В 2 5000 м дымка 9/9 150 м
[Sc]
+0.8 -0.2 93 -3 -3 по сезону 1024.2 1008.8
04 14.12 В 2 6000 м дымка 9/9 150 м
[Sc]
+0.8 -0.4 92 -3 -3 тепло 1024.4 1009.0
05 14.12 В 2 7000 м дымка 9/9 180 м
[Sc]
+0.7 -0.6 91 -3 -3 по сезону 1024.4 1009.0
06 14.12 В 3 7000 м дымка 9/9 270 м
[Sc]
+0.7 -0.8 90 -4 -4 по сезону 1024.6 1009.2 +0.6 +1.0 0.2
07 14.12 В 2 6000 м дымка 10/9 240 м
[Sc]
+0.7 -0.8 90 -3 -3 тепло 1025.1 1009.7
08 14.12 В 4 6000 м дымка 10/9 240 м
[St]
+0.8 -1.1 87 -5 -5 по сезону 1025.6 1010.2
09 14.12 В 4 11 км 9/9 270 м
[Sc]
+0.9 -1.3 85 -4 -4 по сезону 1026.0 1010.6
10 14.12 В 3 12 км 10/9 300 м
[Sc]
+1.1 -1.3 84 -3 -3 тепло 1026.2 1010.8
11 14.12 В 5 15 км 10/9 400 м
[Sc]
+0.8 -2.3 80 -5 -5 по сезону 1026.2 1010.8
12 14.12 В 3 16 км 10/9 400 м
[Sc]
+0.8 -2.4 79 -4 -3 прохладно 1026.3 1010.9
13 14.12 В 4 15 км 10/9 400 м
[Sc]
+0.7 -3.0 76 -4 -4 тепло 1026.3 1010.9
14 14.12 СВ 3 15 км 10/9 480 м
[Sc]
+0.6 -3.0 77 -4 -4 по сезону 1026.7 1011.3
15 14.12 СВ 3 12 км 10/9 450 м
[Sc]
+0.4 -3.3 76 -4 -4 по сезону 1027.1 1011.7
16 14.12 В 4 20 км 10/9 330 м
[Sc]
+0.1 -4.2 73 -5 -5 тепло 1027.1 1011.7
17 14.12 СВ 3 25 км 10/9 300 м
[Sc]
+0.1 -5.1 68 -4 -4 по сезону 1027.5 1012.0
18 14.12 СВ 3 20 км 10/9 600 м
[Sc]
0.0 -4.3 73 -4 -4 по сезону 1027.6 1012.1 -0.1 +1.1
19 14.12 СВ 2 18 км слабый снег 10/9 300 м
[Sc]
-0.1 -4.2 74 -4 -4 тепло 1027.6 1012.1
20 14.12 СВ 3 12 км в посл. час снег 10/9 400 м
[Sc]
-0.3 -3.2 81 -5 -5 по сезону 1027.8 1012.3
21 14.12 СВ 2 8000 м слабый снег 10/9 240 м
[Sc]
-0.4 -2.9 83 -4 -4 по сезону 1028.1 1012.6
22 14.12 СВ 2 7000 м слабый снег 10/9 270 м
[Sc]
-0.7 -2.8 86 -4 -4 тепло 1027.9 1012.4
23 14.12 СВ 1 8000 м слабый снег 10/9 240 м
[Sc]
-0.7 -2.3 89 -3 -3 по сезону 1027.8 1012.3
00 15.12 С 1 5000 м слабый снег 10/9 210 м
[Sc]
-0.6 -2.2 89 -3 -3 по сезону 1027.8 1012.3 0.0
01 15.12 СВ 2 3500 м слабый снег 10/9 150 м
[Sc]
-0.6 -1.9 91 -4 -4 тепло 1027.9 1012.4
02 15.12 С 2 3300 м слабый снег 10/9 150 м
[Frnb]
-0.5 -1.6 92 -4 -4 по сезону 1027.8 1012.3
03 15.12 СВ 1 3300 м слабый снег 10/9 150 м
[Frnb]
-0.5 -1.5 93 -3 -3 по сезону 1027.6 1012.1
04 15.12 С 2 3300 м слабый снег 10/9 180 м
[Frnb]
-0.5 -1.5 93 -4 -4 тепло 1027.7 1012.2
05 15.12 СВ 2 3500 м слабый снег 10/9 180 м
[Sc]
-0.3 -1.3 93 -4 -4 по сезону 1027.7 1012.2
06 15.12 СВ 2 3500 м слабый снег 10/9 180 м
[Frnb]
-0.2 -1.2 93 -4 -4 по сезону 1027.8 1012.3 -0.8 0.0 0.5 1
07 15.12 СВ 2 5000 м слабый снег 10/9 180 м
[Frnb]
0.0 -1.1 92 -4 -4 тепло 1028.1 1012.6
08 15.12 СВ 2 5000 м в посл. час снег 10/9 240 м
[Sc]
+0.1 -1.2 91 -4 -4 по сезону 1028.2 1012.7
09 15.12 СВ 2 7000 м дымка {снег} 9/9 360 м
[Sc]
+0.4 -1.2 89 -3 -3 по сезону 1028.1 1012.7
10 15.12 СВ 3 8000 м слабый снег 10/9 330 м
[Sc]
+0.6 -1.6 85 -4 -4 по сезону 1028.1 1012.7
11 15.12 СВ 3 10 км в посл. час снег 10/9 300 м
[Sc]
+0.8 -1.8 83 -4 -4 по сезону 1027.6 1012.2
12 15.12 СВ 4 12 км слабый снег 10/9 450 м
[Sc]
+0.9 -2.3 79 -4 -4 прохладно 1027.3 1011.9 0.0
13 15.12 СВ 3 10 км слабый снег 10/9 450 м
[Sc]
+0.6 -2.0 83 -4 -4 тепло 1027.1 1011.7
14 15.12 СВ 2 8000 м в посл. час снег 10/9 400 м
[Sc]
+0.6 -1.8 84 -3 -3 по сезону 1027.1 1011.7
15 15.12 В 5 20 км {снег} 10/9 400 м
[Sc]
+0.6 -3.7 73 -5 -5 прохладно 1027.0 1011.6
16 15.12 В 3 20 км 10/9 1000 м
[Sc]
+0.4 -4.3 71 -4 -4 тепло 1026.8 1011.4
17 15.12 СВ 2 20 км 10/9 1000 м
[Sc]
+0.2 -4.6 70 -3 -3 по сезону 1026.5 1011.1
18 15.12 СВ 3-8
{8}
20 км {снег} 10/9 1000 м
[Sc]
+0.2 -4.8 69 -4 -4 по сезону 1026.3 1010.9 -0.2 +1.1 0.0
19 15.12 СВ 2 20 км слабый снег 10/9 600 м
[Sc]
+0.1 -4.9 69 -3 -3 тепло 1026.0 1010.6
20 15.12 СВ 3 20 км в посл. час снег 10/9 600 м
[Sc]
0.0 -5.0 69 -4 -4 по сезону 1025.5 1010.1
21 15.12 СВ 3 18 км слабый снег 10/9 600 м
[Sc]
-0.1 -4.4 73 -5 -5 по сезону 1024.9 1009.5
22 15.12 СВ 2 18 км в посл. час снег 10/9 600 м
[Sc]
-0.2 -4.1 75 -4 -4 тепло 1024.2 1008.8
23 15.12 СВ 2 20 км 10/9 600 м
[Sc]
-0.2 -3.9 76 -4 -4 по сезону 1023.5 1008.1
00 16.12 СВ 3 20 км 10/9 1000 м
[Sc]
-0.3 -3.8 77 -5 -5 по сезону 1022.9 1007.5 0.0
01 16.12 СВ 3 18 км 10/9 600 м
[Sc]
-0.3 -3.7 78 -5 -5 тепло 1022.5 1007.1
02 16.12 СВ 3 8000 м слабый снег 10/9 360 м
[Sc]
-0.7 -3.1 84 -5 -5 по сезону 1022.0 1006.6
03 16.12 СВ 2 6000 м слабый снег 10/9 360 м
[Sc]
-1.3 -2.7 90 -5 -5 по сезону 1021.4 1006.0
04 16.12 В 4 6000 м слабый снег 10/9 330 м
[Sc]
-1.1 -3.1 86 -7 -7 по сезону 1020.7 1005.3
05 16.12 СВ 1 7000 м в посл. час снег 9/9 270 м
[Sc]
-1.5 -3.1 89 -4 -4 по сезону 1020.3 1004.9
06 16.12 С 1 5000 м дымка {снег} 9/9 270 м
[Sc]
-2.4 -3.7 91 -5 -5 по сезону 1020.0 1004.5 -2.4 +0.6 0.0 <0.5
07 16.12 С 1 5000 м дымка 10/9 240 м
[Sc]
-2.2 -3.3 92 -5 -5 тепло 1019.8 1004.3
08 16.12 СВ 1 6000 м дымка 9/9 240 м
[Sc]
-2.0 -3.3 91 -4 -4 по сезону 1019.7 1004.2
09 16.12 В 1 6000 м слабый снег 9/9 240 м
[Sc]
-1.5 -2.9 90 -4 -4 по сезону 1019.5 1004.1
10 16.12 Ю 1 9000 м в посл. час снег 10/9 210 м
[St]
-1.3 -3.2 87 -3 -3 тепло 1019.1 1003.7
11 16.12 ЮВ 2 9000 м дымка 10/9 210 м
[Sc]
-1.0 -3.0 86 -5 -5 по сезону 1018.5 1003.1
12 16.12 ЮВ 3 10 км {снег} 9/9 240 м
[Sc]
-0.8 -3.0 85 -6 -6 прохладно 1017.9 1002.5 0.0
13 16.12 ЮВ 3 10 км 8/8 270 м
[Sc]
-0.6 -3.5 81 -5 -5 по сезону 1017.5 1002.2
14 16.12 ЮВ 4 15 км 10/9 600 м
[Sc]
-0.5 -4.4 75 -6 -6 по сезону 1017.2 1001.9
15 16.12 Ю 5 30 км 10/9 600 м
[Sc]
-0.7 -6.1 67 -7 -7 прохладно 1017.4 1002.1
16 16.12 Ю 5 30 км 9/9 600 м
[Sc]
-0.6 -5.6 69 -7 -7 по сезону 1017.5 1002.2
17 16.12 ЮВ 3 30 км 3/3 600 м
[Sc]
-2.0 -5.8 75 -7 -7 по сезону 1017.5 1002.1
18 16.12 ЮВ 3 20 км 9/0
[Ac trans]
-1.8 -5.5 76 -7 -7 прохладно 1017.5 1002.1 -2.5 -0.4 0.0
19 16.12 Ю 3 20 км 5/0
[Ac trans]
-2.6 -6.1 77 -8 -8 по сезону 1017.5 1002.0
20 16.12 ЮВ 3 20 км 9/0
[Ac trans]
-2.2 -5.4 79 -7 -7 по сезону 1017.7 1002.3
21 16.12 В 2 17 км 9/0
[Ac trans]
-2.2 -5.4 79 -6 -6 прохладно 1017.9 1002.5
22 16.12 ЮВ 2 15 км 9/0
[Ac trans]
-2.0 -5.0 80 -6 -6 тепло 1018.0 1002.6
23 16.12 ЮВ 2 12 км 9/0
[Ac trans]
-1.8 -4.3 83 -6 -6 по сезону 1018.0 1002.6
00 17.12 ЮВ 2 12 км 9/4 1500 м
[Sc Ac trans]
-1.6 -4.3 82 -5 -5 по сезону 1018.0 1002.6
01 17.12 В 1 15 км 9/9 1500 м
[Sc]
-1.3 -4.3 80 -3 -3 тепло 1018.2 1002.8
02 17.12 ЮВ 1 20 км 9/9 1500 м
[Sc]
-1.2 -4.0 81 -3 -3 по сезону 1018.5 1003.1
03 17.12 ЮВ 1 20 км 9/5 1000 м
[Sc Ac trans]
-1.2 -3.6 84 -3 -3 по сезону 1018.7 1003.3
04 17.12 В 1 20 км 9/9 1000 м
[Sc]
-1.1 -3.6 83 -3 -3 тепло 1018.7 1003.3
05 17.12 Ю 1 15 км 10/9 600 м
[Sc]
-1.2 -3.2 86 -3 -3 по сезону 1019.1 1003.7
06 17.12 В 1 12 км 10/9 600 м
[Sc]
-0.8 -3.2 84 -3 -3 по сезону 1019.7 1004.3 -2.6 -0.8
07 17.12 Ю 1 12 км 10/10 600 м
[Sc]
-0.8 -3.2 84 -3 -3 тепло 1020.4 1005.0
08 17.12 З 1 10 км 10/10 600 м
[Sc]
-0.3 -2.5 85 -2 -2 по сезону 1021.3 1005.9
09 17.12 ЮЗ 1 9000 м дымка 10/10 450 м
[Sc]
+0.2 -2.3 83 -2 -2 по сезону 1021.8 1006.4
10 17.12 ЮЗ 2 9000 м дымка 10/10 360 м
[Sc]
+0.6 -1.8 84 -3 -3 тепло 1021.9 1006.6
11 17.12 ЮЗ 1 10 км 10/10 400 м
[Sc]
+0.7 -1.5 85 -1 -1 по сезону 1022.1 1006.8
12 17.12 З 2 10 км 10/9 180 м
[St]
+1.1 -1.6 82 -2 -2 по сезону 1022.2 1006.9
13 17.12 ЮЗ 2 6000 м дымка 10/10 150 м
[St]
+0.9 -0.6 90 -3 -3 тепло 1022.5 1007.2
14 17.12 штиль 0 6000 м дымка 10/10 330 м
[Sc]
+1.2 -0.4 89 0 0 тепло 1023.1 1007.8
15 17.12 Ю 1 5000 м дымка 10/10 300 м
[Sc]
+1.0 -0.6 89 -1 -1 по сезону 1023.7 1008.4
16 17.12 ЮВ 1 6000 м дымка 10/10 600 м
[Sc]
+0.9 -1.0 87 -1 -1 по сезону 1024.4 1009.0

 

Местоположение метеостанции Wroclaw (Польша): широта 51.10 долгота 16.88 высота над уровнем моря 124 м.

В архиве по умолчанию представлена погода в Wroclaw за последнюю неделю. Архивные данные за месяц целиком и за предыдущие месяцы, начиная с января 2011 года, Вы можете получить, выбрав интересующий диапазон дат из раскрывающегося списка и нажав кнопку "Ввод!".


*Определитесь, кто Вы:
робот инопланетянин человек

Внимание! Время в таблицах - всемирное. Для получения местного времени необходимо прибавить поправку, которая в Wroclaw равна 1 ч.

Смотрите также архив погоды в соседних городах и на ближайших метеорологических станциях:

Погода в Legnica (Польша) (49 км)
Погода в Klodzko (Польша) (77 км)
Погода в Jelenia Gora (Польша) (79 км)
Погода в Opole (Польша) (83 км)
Погода в Leszno (Польша) (85 км)
Погода в Snezka (Чехия) (89 км)
Погода в Sniezka (Польша) (91 км)
Погода в Polom (Чехия) (92 км)
Погода в Pec pod Snezkou (Чехия) (93 км)
Погода в Serak (Чехия) (104 км)

Пояснения к столбцам:

Ветер - указаны скорость ветра в м/с - средняя за 10 мин, порывы в срок и между сроками (в фигурных скобках) и направление, откуда дует ветер: С - северный, СВ - северо-восточный, В - восточный, ЮВ - юго-восточный, Ю - южный, ЮЗ - юго-западный, З - западный, СЗ - северо-западный.
Видимость - горизонтальная дальность видимости в метрах или километрах. При видимости от 1 до 10 км при отсутствии осадков обычно наблюдается дымка, при ухудшении видимости до 1 км и менее - туман. В сухую погоду видимость может ухудшаться дымом, пылью или мглою.
Явления - указаны атмосферные явления, наблюдавшиеся в срок или в последний час перед сроком; фигурными скобками обозначены явления, наблюдавшиеся между сроками (за 1-3 часа до срока); квадратными скобками обозначены град или гололедные отложения с указанием их диаметра в мм.
Облачность - указаны через наклонную черту общая и нижняя облачность в баллах и высота нижней границы облаков в метрах; квадратными скобками обозначены формы облаков: Ci - перистые, Cs - перисто-слоистые, Cc - перисто-кучевые, Ac - высококучевые, As - высокослоистые, Sc - слоисто-кучевые, Ns - слоисто-дождевые, Cu - кучевые, Cb - кучево-дождевые. Подробнее классификацию облаков см. в Атласе облаков (PDF).
T - Температура воздуха - температура, измеренная на высоте 2 м над землей.
Td - Температура точки росы - температура, при понижении до которой содержащийся в воздухе водяной пар достигнет насыщения.
f - Относительная влажность воздуха - влажноcть воздуха, измеренная на высоте 2 м над землей.
Te - Эффективная температура - температура, которую ощущает одетый по сезону человек в тени. Характеристика душности погоды. При расчете учитывается влияние влажности воздуха и скорости ветра на теплоощущения человека.
Tes - Эффективная температура на солнце - температура, которую ощущает человек, с поправкой на солнечный нагрев. Характеристика знойности погоды. Зависит от высоты солнца над горизонтом, облачности и скорости ветра. Ночью, в пасмурную погоду, а также при ветре 12 м/с и более поправка равна нулю.
P - Атмосферное давление - приведенное к уровню моря атмосферное давление.
Po - Атмосферное давление - измеренное на уровне метеостанции атмосферное давление.
Tmin - Минимальная температура - минимум температуры воздуха на высоте 2 м над землей.
Tmax - Максимальная температура - максимум температуры воздуха на высоте 2 м над землей.
R - Количество осадков - Количество выпавших осадков за период времени, мм. При наведении курсора мыши на число - период времени, за который выпало указанное количество осадков.
R24 - Количество осадков - Количество выпавших осадков за 24 часа, мм.
S - Снежный покров - Высота снежного покрова, см. При наведении курсора мыши на число - состояние снежного покрова и степень покрытия местности в баллах.